Date,TemperatureHighF,TemperatureAvgF,TemperatureLowF,DewpointHighF,DewpointAvgF,DewpointLowF,HumidityHigh,HumidityAvg,HumidityLow,PressureMaxIn,PressureMinIn,WindSpeedMaxMPH,WindSpeedAvgMPH,GustSpeedMaxMPH,PrecipitationSumIn
2013-6-1,91.0,82.2,76.0,79.0,75.7,74.0,97,82,62,29.91,29.80,4,1,9,0.01
2013-6-2,85.0,78.2,74.0,76.0,74.1,72.0,97,88,68,29.96,29.80,8,1,15,0.05
2013-6-3,91.0,80.6,71.0,76.0,72.8,70.0,98,79,53,29.92,29.76,6,1,12,0.05
2013-6-4,95.0,83.6,72.0,76.0,73.0,70.0,96,73,48,29.89,29.73,5,1,9,0.00
2013-6-5,95.0,83.6,74.0,78.0,75.4,73.0,97,78,53,29.87,29.70,5,1,10,0.00
2013-6-6,90.0,77.0,70.0,78.0,73.6,69.0,98,90,61,29.85,29.69,7,1,16,1.52
2013-6-7,86.0,75.9,70.0,73.0,70.4,69.0,98,85,60,29.88,29.76,5,1,10,0.37
2013-6-8,91.0,76.0,69.0,74.0,70.6,68.0,98,86,53,29.93,29.80,6,1,14,0.00
2013-6-9,92.0,77.4,70.0,78.0,72.1,69.0,98,85,58,29.96,29.79,5,1,9,0.00
2013-6-10,92.0,81.0,71.0,77.0,74.5,70.0,98,82,60,29.97,29.89,3,1,7,0.00
2013-6-11,94.0,83.7,74.0,79.0,75.4,71.0,98,79,48,30.05,29.90,2,0,7,0.00
2013-6-12,94.0,82.7,74.0,78.0,75.4,73.0,98,81,55,30.07,29.93,3,0,10,0.00
2013-6-13,94.0,84.3,74.0,78.0,75.3,73.0,98,77,53,30.03,29.82,5,1,10,0.00
2013-6-14,97.0,84.2,77.0,83.0,77.8,75.0,97,83,54,29.92,29.76,6,1,12,0.35
2013-6-15,95.0,83.4,73.0,80.0,75.7,71.0,92,79,55,29.97,29.82,3,0,8,0.22
2013-6-16,93.0,84.6,77.0,79.0,76.4,74.0,96,78,57,30.02,29.86,3,0,8,0.00
2013-6-17,91.0,82.4,73.0,78.0,75.0,72.0,97,80,58,29.97,29.83,3,0,7,0.00
2013-6-18,92.0,83.2,74.0,77.0,74.0,71.0,96,76,52,29.97,29.79,6,1,17,0.00
2013-6-19,85.0,77.8,73.0,79.0,75.0,72.0,97,91,77,30.02,29.92,5,1,9,0.79
2013-6-20,92.0,80.3,74.0,77.0,74.6,71.0,98,85,50,30.07,29.96,6,1,8,0.01
2013-6-22,95.0,89.0,78.0,76.0,73.4,70.0,84,61,45,30.03,29.90,8,3,16,0.00
2013-6-23,92.0,79.1,72.0,78.0,74.6,71.0,98,87,55,30.02,29.94,5,1,13,1.26
2013-6-24,91.0,81.7,74.0,78.0,75.1,71.0,97,82,57,30.07,29.96,6,1,13,0.98
2013-6-25,93.0,83.0,74.0,78.0,74.8,69.0,98,78,48,30.07,29.91,4,1,8,0.00
2013-6-26,95.0,85.3,73.0,78.0,74.7,72.0,97,73,48,30.00,29.86,3,1,9,0.00
2013-6-27,96.0,84.4,74.0,79.0,75.7,73.0,98,78,51,30.01,29.83,4,1,10,0.00
2013-6-28,95.0,85.7,78.0,79.0,76.9,73.0,96,77,51,29.93,29.71,3,1,10,0.00
2013-6-29,97.0,83.7,77.0,80.0,77.3,75.0,96,83,50,29.79,29.58,3,0,17,0.13
2013-6-30,93.0,82.1,74.0,76.0,69.2,61.0,98,70,35,29.80,29.67,7,2,14,0.13